Fayetteville, NC

5:03 PM EDT on June 23, 2017 (GMT -0400)
Fayetteville Regional-Grannis

Weather History for KFAY - April, 2013

Change the Weather History Date:

Monday, April 1, 2013

  Actual Average Record
Temperature  
Mean Temperature 67 °F 59 °F  
Max Temperature 75 °F 71 °F 87 °F (1940)
Min Temperature 58 °F 47 °F 26 °F (1923)
Degree Days  
Heating Degree Days 0 7  
Month to date heating degree days 0 7  
Since 1 July heating degree days 2602 2576  
Cooling Degree Days 2 1  
Month to date cooling degree days 2 1  
Year to date cooling degree days 10 17  
Growing Degree Days 17 (Base 50)    
Moisture  
Dew Point 51 °F    
Average Humidity 60    
Maximum Humidity 97    
Minimum Humidity 23    
Precipitation  
Precipitation 0.48 in 0.13 in 4.25 in (1973)
Month to date precipitation 0.48 0.13  
Year to date precipitation 7.79 9.74  
Sea Level Pressure  
Sea Level Pressure 29.85 in    
Wind  
Wind Speed 8 mph (West)    
Max Wind Speed 21 mph    
Max Gust Speed 36 mph    
Visibility 9 miles    
Events Rain    
T = Trace of Precipitation, MM = Missing Value Source: NWS Daily Summary

Daily Weather History Graph

Daily Weather History Graph

Search for Another Location

Airport or City:

Trip Planner

Search our weather history database for the weather conditions in past years. The results will help you decide how hot, cold, wet, or windy it might be!

Date:

Astronomy

Apr. 01, 2013 Rise Set
Actual Time 7:02 AM EDT 7:37 PM EDT
Civil Twilight 6:36 AM EDT 8:02 PM EDT
Nautical Twilight 6:06 AM EDT 8:32 PM EDT
Astronomical Twilight 5:36 AM EDT 9:03 PM EDT
Moon 12:33 AM EDT (4/1) 10:56 AM EDT (4/1)
Length of Visible Light 13h 25m
Length of Day
12h 34m
Waning Gibbous, 67% of the Moon is Illuminated
Apr 1
Waning Gibbous
Apr 3
Last Quarter
Apr 10
New
Apr 18
First Quarter
Apr 25
Full

Hourly Weather History & Observations

Time (EDT) Temp. Dew Point Humidity Pressure Visibility Wind Dir Wind Speed Gust Speed Precip Events Conditions
12:53 AM 59.0 °F 55.9 °F 90% 29.85 in 10.0 mi SW 5.8 mph - N/A   Mostly Cloudy
1:53 AM 60.1 °F 57.0 °F 90% 29.84 in 10.0 mi SW 6.9 mph - N/A   Overcast
2:53 AM 59.0 °F 57.0 °F 93% 29.83 in 10.0 mi SSW 8.1 mph - N/A   Mostly Cloudy
3:53 AM 59.0 °F 57.0 °F 93% 29.82 in 10.0 mi SSW 9.2 mph - 0.00 in Rain Light Rain
4:18 AM 60.8 °F 57.2 °F 88% 29.83 in 7.0 mi SW 9.2 mph - 0.01 in Rain Light Rain
4:25 AM 60.8 °F 57.2 °F 88% 29.83 in 8.0 mi SW 8.1 mph - 0.01 in Rain Light Rain
4:32 AM 60.8 °F 57.2 °F 88% 29.83 in 7.0 mi SW 10.4 mph - 0.02 in Rain Light Rain
4:53 AM 61.0 °F 59.0 °F 93% 29.83 in 7.0 mi WSW 11.5 mph - 0.03 in Rain Light Rain
5:12 AM 60.8 °F 59.0 °F 94% 29.84 in 1.8 mi WSW 15.0 mph 21.9 mph 0.16 in Rain Heavy Rain
5:22 AM 60.8 °F 59.0 °F 94% 29.84 in 2.0 mi SW 15.0 mph 28.8 mph 0.24 in Rain Rain
5:29 AM 60.8 °F 59.0 °F 94% 29.84 in 5.0 mi SW 12.7 mph - 0.26 in Rain Light Rain
5:53 AM 61.0 °F 59.0 °F 93% 29.83 in 4.0 mi WSW 12.7 mph - 0.31 in Rain Light Rain
6:53 AM 60.1 °F 57.9 °F 93% 29.83 in 10.0 mi WSW 8.1 mph - 0.12 in Rain Light Rain
7:09 AM 60.8 °F 57.2 °F 88% 29.85 in 10.0 mi WSW 6.9 mph - 0.01 in Rain Light Rain
7:53 AM 60.1 °F 59.0 °F 96% 29.85 in 7.0 mi WSW 5.8 mph - 0.01 in Rain Light Rain
8:01 AM 60.8 °F 59.0 °F 94% 29.87 in 6.0 mi WSW 5.8 mph - 0.00 in Rain Light Rain
8:53 AM 60.1 °F 57.9 °F 93% 29.87 in 10.0 mi West 9.2 mph - 0.01 in   Overcast
8:55 AM 60.8 °F 57.2 °F 88% 29.88 in 10.0 mi West 6.9 mph - N/A   Overcast
9:02 AM 60.8 °F 57.2 °F 88% 29.88 in 10.0 mi WNW 4.6 mph - N/A   Overcast
9:12 AM 60.8 °F 57.2 °F 88% 29.88 in 10.0 mi NW 5.8 mph - N/A   Overcast
9:53 AM 60.1 °F 57.9 °F 93% 29.87 in 10.0 mi NW 5.8 mph - N/A   Overcast
10:53 AM 61.0 °F 55.0 °F 81% 29.87 in 10.0 mi North 6.9 mph - N/A   Overcast
11:53 AM 63.0 °F 53.1 °F 70% 29.89 in 10.0 mi NNE 4.6 mph - N/A   Overcast
12:53 PM 66.0 °F 48.0 °F 52% 29.86 in 10.0 mi Variable 4.6 mph - N/A   Clear
1:53 PM 71.1 °F 39.0 °F 31% 29.84 in 10.0 mi WNW 11.5 mph - N/A   Clear
2:53 PM 71.1 °F 42.1 °F 35% 29.82 in 10.0 mi WSW 5.8 mph - N/A   Partly Cloudy
3:53 PM 73.0 °F 39.9 °F 30% 29.81 in 10.0 mi West 15.0 mph 21.9 mph N/A   Clear
4:53 PM 73.9 °F 39.0 °F 28% 29.80 in 10.0 mi West 9.2 mph 20.7 mph N/A   Clear
5:53 PM 75.0 °F 35.1 °F 23% 29.81 in 10.0 mi WNW 11.5 mph 21.9 mph N/A   Partly Cloudy
6:53 PM 72.0 °F 34.0 °F 25% 29.83 in 10.0 mi WNW 8.1 mph 18.4 mph N/A   Partly Cloudy
7:53 PM 68.0 °F 36.0 °F 31% 29.83 in 10.0 mi WNW 4.6 mph - N/A   Clear
8:53 PM 66.0 °F 37.0 °F 34% 29.85 in 10.0 mi WNW 4.6 mph - N/A   Clear
9:53 PM 64.0 °F 37.9 °F 38% 29.87 in 10.0 mi NW 8.1 mph - N/A   Clear
10:53 PM 60.1 °F 39.0 °F 46% 29.90 in 10.0 mi NNW 5.8 mph - N/A   Clear
11:53 PM 60.1 °F 39.0 °F 46% 29.92 in 10.0 mi NW 6.9 mph - N/A   Clear